Погода в Запрудном

Россия / Республика Крым     44°35′40″N   34°19′09″E
темп.,
°C
ветер,
м/с
пор.,
м/с
влажн.,
%
обл.,
%
осадки,
мм/ч
давл.,
гПа
погр.,
м
25 февраля, чт
чт2500:00+1вюв227157 0.0 1036339
03:00+1ю117036 0.0 1035269
06:00+1ю127244 0.0 1035303
09:00+2ююз237249 0.0 1036334
12:00+5ююз447343 0.0 1035455
15:00+6ююз557836 0.0 1034425
18:00+5ююз448280 0.0 1033280
21:00+5зсз127777 0.0 1033104
26 февраля, пт
пт2600:00+6с338034 0.0 1033130
03:00+6ссз228050 0.0 103284
06:00+6зсз227916 0.0 103164
09:00+7сз118234 0.0 103060
12:00+8юз238242 0.0 1030180
15:00+9з348453 0.0 1028119
18:00+8з22889 0.0 102640
21:00+7зюз348217 0.0 102658
27 февраля, сб
сб2700:00+7зюз56840 0.0 1024170
03:00+7з67840 0.0 1023196
06:00+7з67810 0.0 1021155
09:00+8з67790 0.0 1020169
12:00+9зюз78770 0.0 1018301
15:00+10зюз68776 0.0 1017335
18:00+9зсз358352 0.0 1016108
21:00+8ссз348575 0.1 101694
28 февраля, вс
вс2800:00+5ссз6786100 0.7 1017319
03:00+5сз6773100 0.7 1017462
06:00+4сз34706 0.0 1018408
09:00+4сз347226 0.2 1020553
12:00+4сз236734 0.1 1021629
15:00+5сз126535 0.4 1021566
18:00+4ссз237051 0.3 1022572
21:00+4ссз447546 0.5 1024421
1 марта, пн
пн100:00+3ссз447543 0.0 1025271
03:00+2сз337259 0.1 1026274
06:00+2ссз2269100 0.0 1026425
09:00+2зсз127182 0.1 1027418
12:00+3ююв218177 0.3 1029316
15:00+2ююв329188 1.6 1029284
18:00+2вюв1288100 2.4 1030314
21:00+2ссв2288100 3.4 1032339